Flag for U.S.A. Weather past 2 weeks in Cheyenne, Wyoming, U.S.A.

Now
84 °F

Thunderstorms. Broken clouds.


Feels Like: 82 °F
Forecast: 58 / 87 °F
Wind: 15 mph from Southwest

Location: Cheyenne Airport

Current Time: Aug 2, 2015 at 2:46:15 PM

Latest Report: Aug 2, 2015 at 2:01 PM


Visibility: 10 mi

Pressure: 30.16 "Hg (24.45 "Hg at 1855m altitude)

Humidity: 26%

Dew point: 46 °F

Location of CheyenneLocation

Historic Weather in Cheyenne — Graph

°F

Cheyenne temperature yesterday

Maximum temperature yesterday: 89 °F (at 12:53 PM)
Minimum temperature yesterday: 53 °F (at 5:53 AM)
Average temperature yesterday: 73 °F

Past Weeks' High & Low Weather Summary

 TemperatureHumidityPressure
High91 °F (Jul 27, 2:53 PM)97% (Jul 21, 6:53 PM)30.19 "Hg (Jul 21, 6:53 PM)
Low47 °F (Jul 29, 5:53 AM)13% (Jul 26, 1:53 PM)29.59 "Hg (Jul 27, 5:53 PM)
Average70 °F48%29.93 "Hg
* Reported Jul 18 2:53 PM — Aug 2 2:01 PM, Cheyenne, Weather by CustomWeather, © 2015

Note: Actual official high and low records may vary slightly from our data, if they occured in-between our weather recording intervals... More about our weather records

Advertising

Cheyenne weather history for previous 24 hours

 ConditionsComfort  
Time TempWeatherWind HumidityBarometerVisibility
2:01 PM
Sun, Aug 2
84 °FThunderstorms. Broken clouds.15 mph26%30.16 "Hg10 mi
12:53 PM80 °FPartly sunny.3 mph25%29.88 "Hg10 mi
11:53 AM87 °FSunny.9 mph24%29.85 "Hg10 mi
10:53 AM86 °FSunny.13 mph27%29.85 "Hg10 mi
9:53 AM81 °FSunny.8 mph35%29.86 "Hg10 mi
8:53 AM78 °FSunny.No wind42%29.85 "Hg10 mi
7:53 AM69 °FSunny.7 mph53%29.86 "Hg10 mi
6:53 AM61 °FClear.8 mph65%29.87 "Hg10 mi
5:53 AM58 °FClear.7 mph72%29.85 "Hg10 mi
4:53 AM58 °FClear.12 mph75%29.84 "Hg10 mi
3:53 AM58 °FClear.13 mph78%29.85 "Hg10 mi
2:53 AM58 °FClear.10 mph78%29.87 "Hg10 mi
1:53 AM59 °FClear.8 mph78%29.88 "Hg10 mi
12:53 AM63 °FPassing clouds.3 mph70%29.88 "Hg10 mi
11:53 PM
Sat, Aug 1
65 °FClear.8 mph66%29.87 "Hg10 mi
10:53 PM67 °FClear.10 mph61%29.88 "Hg10 mi
9:53 PM70 °FClear.13 mph55%29.88 "Hg10 mi
8:53 PM75 °FSunny.9 mph37%29.85 "Hg10 mi
7:53 PM79 °FPassing clouds.5 mph31%29.86 "Hg10 mi
6:53 PM81 °FScattered clouds.5 mph28%29.87 "Hg10 mi
5:53 PM84 °FSunny.13 mph23%29.87 "Hg10 mi
4:53 PM87 °FSunny.7 mph19%29.86 "Hg10 mi
3:53 PM86 °FSunny.10 mph20%29.87 "Hg10 mi
2:53 PM86 °FThundershowers. Passing clouds.15 mph20%29.89 "Hg10 mi
Weather by CustomWeather, © 2015

See weather overviewHow to use our weather pages